GW1312 Weather Reports


time (UTC)temp
C
wind
direction
speed
KPH
gust
KPH
rain 1hr
cm
rain 24hr
cm
rain mn
cm
humidity
%
barometer
mb
20260506103054 13 0 0.0 0.0 0.00 0.08 0.00 89 1018.6
20260506101552 13 0 0.0 0.0 0.00 0.08 0.00 89 1018.5
20260506100050 13 0 0.0 0.0 0.00 0.08 0.00 89 1018.4
20260506094555 14 0 0.0 0.0 0.00 0.08 0.00 89 1018.4
20260506093055 14 0 0.0 0.0 0.00 0.08 0.00 89 1018.4
20260506091551 14 0 0.0 0.0 0.00 0.08 0.00 89 1018.4
20260506090055 14 0 0.0 0.0 0.00 0.08 0.00 88 1018.4
20260506084558 14 0 0.0 0.0 0.00 0.13 0.00 88 1018.4
20260506083057 14 0 0.0 0.0 0.00 0.13 0.00 88 1018.5
20260506081556 14 0 0.0 0.0 0.00 0.13 0.00 87 1018.3
20260506073059 14 0 0.0 0.0 0.00 0.13 0.00 86 1018.0
20260506071554 15 0 0.0 0.0 0.00 0.13 0.00 84 1017.8
20260506070116 15 0 0.0 0.0 0.00 0.13 0.00 84 1017.7
20260506061601 15 0 0.0 0.0 0.00 0.15 0.13 81 1017.5
20260506044600 15 0 0.0 1.6 0.00 0.69 0.13 79 1016.6
20260506043053 15 0 0.0 8.0 0.00 0.69 0.13 78 1016.3
20260506041556 15 0 0.0 11.3 0.00 0.69 0.13 78 1016.1
20260506040100 15 198 0.0 3.2 0.00 0.69 0.13 78 1016.0
20260506034554 15 0 0.0 1.6 0.00 0.84 0.13 78 1015.7
20260506033052 15 0 0.0 3.2 0.00 0.84 0.13 78 1015.5
20260506031601 15 0 0.0 4.8 0.00 0.84 0.13 77 1015.2
20260506030113 15 0 1.6 9.7 0.00 0.84 0.13 77 1015.0
20260506024554 16 201 0.0 8.0 0.00 0.94 0.13 78 1014.8
20260506023056 16 0 0.0 3.2 0.00 0.94 0.13 77 1014.4
20260506021558 16 0 0.0 3.2 0.00 0.94 0.13 77 1014.2
20260506020056 16 0 0.0 3.2 0.00 0.94 0.13 77 1014.0
20260506014600 16 0 0.0 1.6 0.00 0.97 0.13 76 1013.9
20260506013054 16 0 0.0 9.7 0.00 0.97 0.13 75 1013.7
20260506011558 16 0 0.0 1.6 0.00 0.97 0.13 77 1013.6
20260506010058 16 0 0.0 4.8 0.00 0.97 0.13 77 1013.5
20260506004626 16 0 0.0 11.3 0.00 0.97 0.13 75 1013.4
20260506003057 17 0 0.0 1.6 0.00 0.97 0.13 73 1013.2
20260506001600 17 0 0.0 0.0 0.00 0.97 0.13 74 1013.3
20260506000054 17 0 0.0 0.0 0.00 0.97 0.13 74 1013.2
20260505234614 17 173 0.0 3.2 0.00 0.97 0.13 73 1013.1
20260505233054 17 0 0.0 6.4 0.00 0.97 0.13 72 1013.2
20260505231551 17 162 0.0 6.4 0.00 0.97 0.13 70 1013.1
20260505230053 17 0 0.0 6.4 0.00 0.97 0.13 73 1013.4
20260505224552 16 218 0.0 8.0 0.00 0.97 0.13 75 1013.6
20260505223103 16 0 0.0 3.2 0.00 0.97 0.13 74 1013.7
20260505221608 16 0 0.0 8.0 0.00 0.97 0.13 73 1013.9
20260505220133 17 150 0.0 4.8 0.00 0.97 0.13 74 1013.9
20260505214615 17 175 0.0 3.2 0.00 0.97 0.13 71 1014.0
20260505213057 17 0 0.0 3.2 0.00 0.97 0.13 74 1014.0
20260505211613 17 0 0.0 4.8 0.00 0.97 0.13 76 1014.1
20260505210056 17 0 0.0 6.4 0.00 0.97 0.13 75 1014.1
20260505204555 16 0 0.0 3.2 0.00 0.97 0.13 74 1014.3
20260505203058 16 0 0.0 1.6 0.00 0.97 0.13 79 1014.5
20260505201606 16 0 0.0 0.0 0.00 0.97 0.13 77 1014.4
20260505200104 15 0 0.0 1.6 0.00 0.97 0.13 79 1014.6
20260505194603 15 0 0.0 0.0 0.00 0.97 0.13 78 1014.7
20260505193052 15 0 0.0 0.0 0.00 0.97 0.13 83 1014.9
20260505191555 15 0 0.0 0.0 0.00 0.97 0.13 82 1014.9
20260505190059 15 0 0.0 3.2 0.00 0.97 0.13 80 1015.0
20260505184552 15 0 0.0 3.2 0.00 0.97 0.13 84 1014.9
20260505183055 14 0 0.0 6.4 0.00 0.97 0.13 82 1014.9
20260505181552 13 165 0.0 1.6 0.00 0.97 0.13 86 1014.9
20260505180054 13 0 0.0 3.2 0.00 0.97 0.13 88 1014.9
20260505174604 13 0 1.6 8.0 0.00 0.97 0.13 88 1014.9
20260505173053 12 0 0.0 1.6 0.00 0.97 0.13 90 1014.9
20260505171556 12 0 0.0 3.2 0.00 0.97 0.13 93 1014.9
20260505170100 12 0 0.0 0.0 0.00 0.97 0.13 93 1014.7
20260505164611 12 0 0.0 0.0 0.00 0.97 0.13 93 1014.8
20260505163058 11 0 0.0 0.0 0.00 0.97 0.13 94 1014.9
20260505161558 11 0 0.0 0.0 0.00 0.97 0.13 94 1014.9
20260505160108 11 0 0.0 0.0 0.00 0.97 0.13 94 1014.7
20260505153053 11 0 0.0 1.6 0.00 0.97 0.13 93 1014.7